YAHSAT 1B

Last updated on Thu Oct 30 2025 00:02:49 GMT+0000 (Coordinated Universal Time)

1 38245U 12016A 25302.19512324 .00000136 00000+0 00000+0 0 9999 2 38245 0.0565 82.8164 0002756 141.3145 291.5184 1.00271114 43293
UTC large
Height (km)
Speed (km/s)
/
Latitude / Longitude
Inclination (degrees)
Orbital Period (minutes)
Azimuth
Elevation
Range (km)
Doppler Factor

Next 0 passes for location: London (51.5072 / 0.1276)

Sorry there are no passes over London.